This is the latest recevied weather packets stored in our database for station/object ALANSN-2. If no packets are shown the sender has not sent any weather packets the latest 10 day(s).
| Time | Temp. | Humidity | Pressure | Rain* | Wind** | Luminosity | Snow |
|---|---|---|---|---|---|---|---|
| 1787608919 | 22.78° C | 73% | 1027 hPa | 0 mm | - | 381 W/m² | - |
| 1787608620 | 22.22° C | 75% | 1026.9 hPa | 0 mm | - | 106 W/m² | - |
| 1787608319 | 21.67° C | 76% | 1026.9 hPa | 0 mm | - | 356 W/m² | - |
| 1787608020 | 21.67° C | 77% | 1027.1 hPa | 0 mm | - | 153 W/m² | - |
| 1787607720 | 22.22° C | 75% | 1026.9 hPa | 0 mm | - | 173 W/m² | - |
| 1787607420 | 22.22° C | 76% | 1027 hPa | 0 mm | - | 453 W/m² | - |
| 1787607120 | 22.22° C | 76% | 1026.9 hPa | 0 mm | - | 285 W/m² | - |
| 1787606820 | 21.67° C | 78% | 1026.8 hPa | 0 mm | - | 148 W/m² | - |
| 1787606520 | 21.67° C | 77% | 1026.7 hPa | 0 mm | - | 141 W/m² | - |
| 1787606220 | 21.67° C | 77% | 1026.7 hPa | 0 mm | - | 163 W/m² | - |
| 1787605919 | 21.67° C | 77% | 1026.7 hPa | 0 mm | - | 555 W/m² | - |
| 1787605620 | 21.67° C | 77% | 1026.7 hPa | 0 mm | - | 555 W/m² | - |
| 1787605320 | 21.67° C | 77% | 1026.6 hPa | 0 mm | - | 117 W/m² | - |
| 1787605020 | 21.67° C | 76% | 1026.8 hPa | 0 mm | - | 411 W/m² | - |
| 1787604719 | 21.67° C | 76% | 1026.8 hPa | 0 mm | - | 411 W/m² | - |
| 1787604420 | 21.67° C | 76% | 1026.4 hPa | 0 mm | - | 215 W/m² | - |
| 1787604119 | 21.11° C | 78% | 1026.6 hPa | 0 mm | - | 138 W/m² | - |
| 1787603822 | 21.11° C | 78% | 1026.6 hPa | 0 mm | - | 138 W/m² | - |
| 1787603520 | 21.11° C | 79% | 1026.5 hPa | 0 mm | - | 146 W/m² | - |
| 1787603218 | 21.11° C | 78% | 1026.6 hPa | 0 mm | - | 58 W/m² | - |
| 1787602919 | 21.11° C | 78% | 1026.6 hPa | 0 mm | - | 58 W/m² | - |
| 1787602620 | 21.11° C | 77% | 1026.3 hPa | 0 mm | - | 100 W/m² | - |
| 1787602318 | 21.11° C | 77% | 1026.1 hPa | 0 mm | - | 79 W/m² | - |
| 1787602020 | 21.11° C | 77% | 1026.1 hPa | 0 mm | - | 79 W/m² | - |
| 1787601719 | 21.11° C | 76% | 1026.2 hPa | 0 mm | - | 148 W/m² | - |
* Rain latest hour (hover to see other rain measurements)
** Current wind speed in m/s (hover to see current wind gust speed)